Home   Weather   Schaffhausen   Past weeks

Flag for Switzerland Past Weather in Schaffhausen, Schaffhausen, Switzerland — Yesterday and Last 2 Weeks

Now
45 °F

Cool.


Feels Like: 43 °F
Forecast: 32 / 42 °F
Wind: 5 mph from Northeast

Location: Zurich-Kloten

Current Time: Apr 26, 2017 at 12:51:17 am

Latest Report: Apr 26, 2017 at 12:00 am


Visibility: N/A

Pressure: 29.75 "Hg

Humidity: 95%

Dew Point: 44 °F

Location of SchaffhausenLocation

Past Weather in Schaffhausen — Graph

°F

Schaffhausen Temperature Yesterday

Maximum temperature yesterday: 56 °F (at 11:00 am)
Minimum temperature yesterday: 46 °F (at 12:00 am)
Average temperature yesterday: 50 °F

High & Low Weather Summary for the Past Weeks

 TemperatureHumidityPressure
High68 °F (Apr 12, 5:00 pm)100% (Apr 18, 2:00 am)30.59 "Hg (Apr 18, 2:00 am)
Low23 °F (Apr 21, 7:00 am)24% (Apr 21, 3:00 pm)29.75 "Hg (Apr 25, 11:00 pm)
Average47 °F67%30.18 "Hg
* Reported Apr 10 11:00 pm — Apr 25 11:00 pm, Schaffhausen, Weather by CustomWeather, © 2017

Note: Actual official high and low records may vary slightly from our data, if they occured in-between our weather recording intervals... More about our weather records

Advertising

Schaffhausen Weather History for the Previous 24 Hours

Scroll right to see more
 ConditionsComfort  
Time TempWeatherWind HumidityBarometerVisibility
11:00 pm
Tue, Apr 25
46 °FRain. Low clouds.5 mph96%29.75 "Hg5 mi
10:00 pm47 °FCool.6 mph95%29.76 "HgN/A
9:00 pm46 °FCool.2 mph96%29.77 "HgN/A
8:00 pm46 °FRain. Overcast.5 mph97%29.78 "Hg5 mi
7:00 pm47 °FCool.2 mph94%29.78 "HgN/A
6:00 pm47 °FCool.7 mph93%29.79 "HgN/A
5:00 pm49 °FLight rain. Overcast.10 mph88%29.79 "Hg4 mi
4:00 pm51 °FCool.8 mph92%29.78 "HgN/A
3:00 pm52 °FCool.6 mph88%29.79 "HgN/A
2:00 pm53 °FRain showers. Overcast.3 mph86%29.77 "Hg4 mi
1:00 pm56 °FCool.8 mph73%29.76 "HgN/A
12:00 pm56 °FCool.8 mph70%29.78 "HgN/A
11:00 am56 °FOvercast.5 mph61%29.78 "Hg12 mi
10:00 am55 °FCool.2 mph69%29.78 "HgN/A
9:00 am54 °FCool.2 mph74%29.79 "HgN/A
8:00 am52 °FOvercast.2 mph80%29.79 "Hg12 mi
7:00 am50 °FCool.2 mph93%29.79 "HgN/A
6:00 am51 °FCool.6 mph87%29.78 "HgN/A
5:00 am53 °FOvercast.7 mph76%29.79 "Hg12 mi
4:00 am51 °FCool.8 mph78%29.79 "HgN/A
3:00 am48 °FCool.3 mph80%29.82 "HgN/A
2:00 am49 °FOvercast.5 mph75%29.82 "Hg12 mi
1:00 am46 °FCool.6 mph77%29.84 "HgN/A
12:00 am46 °FCool.3 mph82%29.85 "HgN/A
Weather by CustomWeather, © 2017

See weather overviewHow to use our weather pages